Regional Weather Roundup
Issued by NWS Jackson, KY

Home | Current Version | Previous Version | Text Only | Print | Product List | Glossary Off
Versions: 1 2 3 4 5 6 7 8 9 10 11 12 13 14 15 16 17 18 19 20 21 22 23 24 25 26 27 28 29 30 31 32 33 34 35 36 37 38 39 40 41 42 43 44 45 46 47 48 49 50

000
ASUS43 KJKL 172310
RWRJKL

EAST KENTUCKY HOURLY WEATHER ROUNDUP
NATIONAL WEATHER SERVICE JACKSON KY
700 PM EDT THU APR 17 2014

NOTE: "FAIR" INDICATES FEW OR NO CLOUDS BELOW 12,000 FEET WITH
NO SIGNIFICANT WEATHER AND/OR OBSTRUCTIONS TO VISIBILITY.

* THESE REPORTS ARE NOT UNDER NWS QUALITY CONTROL AND MAY NOT
  REPORT WEATHER SUCH AS PRECIPITATION AND FOG.

KYZ079-080-083-085-087-088-110-112-115-119-120-180000
...EASTERN KENTUCKY...

CITY           SKY/WX    TMP DP  RH WIND       PRES   REMARKS
JACKSON        SUNNY     69  18  14 CALM      30.27S
LONDON         SUNNY     69  24  18 S8        30.28R
SOMERSET*      SUNNY     68  23  18 SE6       30.27S
MONTICELLO*    SUNNY    N/A N/A N/A S3        30.28R
WILLIAMSBURG*  SUNNY     66  25  20 SE7       30.28R
MIDDLESBORO*   SUNNY     68  22  17 S3        30.28S
HARLAN APT*    CLEAR     68  12  11 SE5       30.30R
BLACK MTN*       N/A     54  18  24 CALM        N/A
PIKEVILLE APT* SUNNY     68  21  17 CALM      30.26F
BIG SANDY*     CLEAR     69  19  15 CALM      30.27F
MOREHEAD APT*  CLEAR     66  25  20 SE3       30.29S
$$

KYZ035-036-041-042-044-050-067-078-099-180000
...CENTRAL KENTUCKY...

CITY           SKY/WX    TMP DP  RH WIND       PRES   REMARKS
MT STERLING*   SUNNY     64  34  32 N5        30.29R
FLEMING/MASON* SUNNY     64  36  34 W6        30.29R
DANVILLE*      MOSUNNY   68  32  26 CALM      30.29R
LEXINGTON      SUNNY     66  33  29 SW3       30.28R
FRANKFORT      SUNNY     65  36  34 S6        30.27R
$$

KYZ091>093-OHZ055-061-077-WVZ005-015-034-035-042-180000
...SOUTHERN OHIO/WEST VIRGINIA...

CITY           SKY/WX    TMP DP  RH WIND       PRES   REMARKS
COVINGTON      MOSUNNY   65  34  31 S8        30.26S
COLUMBUS       PTSUNNY   67  28  23 S10       30.28S
DAYTON         PTSUNNY   65  32  29 S10       30.26F
WILMINGTON     MOSUNNY   64  34  32 S8        30.27F
HUNTINGTON     SUNNY     68  18  14 CALM      30.27F
CHARLESTON     MOSUNNY   68  22  17 SE8       30.28F
PINEVILLE*     SUNNY     65  28  24 MISG      30.37S
BECKLEY        SUNNY     56  23  27 SE12G18   30.36S
BLUEFIELD      SUNNY     57  23  26 VRB7G20   30.37S
$$

VAZ002-007-008-TNZ017-027-036-066-071-180000
...SOUTHWEST VIRGINIA/EAST TENNESSEE...

CITY           SKY/WX    TMP DP  RH WIND       PRES   REMARKS
WISE*          SUNNY     64   9  11 SE5       30.31F
ABINGDON*      SUNNY     65  20  18 SE15      30.31S
BRISTOL        MOSUNNY   67  21  17 SE9       30.30R
KNOXVILLE      PTSUNNY   67  31  26 N3        30.27F
OAK RIDGE      SUNNY     68  28  22 CALM      30.29F
CROSSVILLE     SUNNY     62  28  27 S8        30.30S
NASHVILLE      PTSUNNY   68  34  28 S7        30.26F
$$

...KEY TO REMARKS...
VSB - VISIBILITY IN MILES
WCI - WIND CHILL INDEX
HX  - HEAT INDEX

$$



USA.gov is the U.S. government's official web portal to all federal, state and local government web resources and services.